Powrót do katalogu

NAVSTAR 10

USA 5

LostNawigacjaMEO
NORAD 15271·PAYLOAD·🇺🇸 United States

Wystrzelony Sep 8, 1984 z Vandenberg Space Force Base

Loading…

Następne Przeloty (najbliższe 24 godziny)

TLE

NieaktualneSource: Space-Track

Epoka: Aug 6, 2026, 00:13 UTC

1 15271U 84097A   26218.00929522 -.00000014  00000-0  00000+0 0  9997
2 15271  62.1001 289.4357 0149187 226.8130 131.8398  1.92619021297279

Śledź NAVSTAR 10 w czasie rzeczywistym z AllMySat

Download on the App Store